Seattle Boeing, WA
on Monday, November 12, 2012

Monday
Previous Day Next Day
Daily Summary
 ActualAverage (KSEA)Record (KSEA)
Temperature
Mean Temperature °F 46°F  
Max Temperature 54°F 52°F 60°F (1953)
Min Temperature 44°F 41°F 13°F (1955)
Degree Days
Heating Degree Days 16 19  
Month to date heating degree days 211  
Since 1 July heating degree days 808  
Cooling Degree Days 0 0  
Month to date cooling degree days 0  
Year to date cooling degree days 189  
Moisture
Dew Point 45°F   
Average Humidity 88    
Maximum Humidity 93    
Minimum Humidity 74    
Precipitation
Precipitation 0.13 in 0.23 in 1.52 in (1999)
Month to date precipitation 2.50  
Year to date precipitation 28.07  
Snow
Snow 0.00 in in T in (1955)
Month to date snowfall  
Since 1 July snowfall  
Snow Depth in   
Wind
Wind Speed 5 mph   
Max Wind Speed 12 mph   
Max Gust Speed mph   
Visibility 9 miles   
Events Rain   

Key: T is trace of precipitation, MM is missing value
Source: NWS Daily Summary
Time(PST)TemperatureDew PointHumidity Pressure Visibility Wind DirectionWind SpeedGust SpeedPrecipitationEvents Conditions
12:50 AM 44.6°F 42.8°F 93% 30.09 in 4.0 miles SSE 3.5 mph - 0.03 in Rain Light Rain
12:53 AM 44.1°F 42.1°F 93% 30.09 in 3.0 miles SSE 3.5 mph - 0.04 in Rain Light Rain
1:53 AM 44.1°F 42.1°F 93% 30.09 in 4.0 miles SSE 5.8 mph - 0.02 in Rain Light Rain
2:00 AM 44.6°F 42.8°F 93% 30.10 in 4.0 miles SSE 5.8 mph - 0.00 in Rain Light Rain
2:53 AM 44.1°F 42.1°F 93% 30.09 in 4.0 miles SSE 4.6 mph - 0.01 in Rain Light Rain
3:15 AM 44.6°F 42.8°F 93% 30.09 in 9.0 miles SE 3.5 mph - 0.00 in Rain Light Rain
3:22 AM 44.6°F 42.8°F 93% 30.09 in 10.0 miles Calm Calm - 0.00 in Rain Light Rain
3:53 AM 45.0°F 42.1°F 90% 30.09 in 10.0 miles Calm Calm - 0.00 in   Overcast
4:53 AM 45.0°F 42.1°F 90% 30.09 in 10.0 miles South 9.2 mph - 0.00 in   Overcast
5:53 AM 45.0°F 43.0°F 93% 30.09 in 10.0 miles SE 3.5 mph - N/A   Overcast
6:53 AM 45.0°F 42.1°F 90% 30.11 in 10.0 miles Calm Calm - N/A   Overcast
7:53 AM 46.0°F 43.0°F 89% 30.12 in 10.0 miles SE 8.1 mph - 0.01 in   Overcast
8:53 AM 46.0°F 43.0°F 89% 30.12 in 10.0 miles SE 9.2 mph - N/A   Overcast
9:53 AM 48.0°F 45.0°F 89% 30.13 in 10.0 miles SSE 10.4 mph - N/A   Overcast
10:53 AM 50.0°F 46.0°F 86% 30.14 in 10.0 miles SE 11.5 mph - N/A   Overcast
11:43 AM 51.8°F 46.4°F 82% 30.14 in 10.0 miles SE 8.1 mph - N/A   Overcast
11:53 AM 51.1°F 46.0°F 83% 30.15 in 10.0 miles SE 10.4 mph - N/A   Overcast
12:53 PM 53.1°F 46.0°F 77% 30.15 in 10.0 miles South 5.8 mph - N/A   Overcast
1:53 PM 53.1°F 46.0°F 77% 30.15 in 10.0 miles SSW 5.8 mph - N/A   Overcast
2:53 PM 54.0°F 46.0°F 75% 30.15 in 10.0 miles SSW 6.9 mph - N/A   Mostly Cloudy
3:53 PM 53.1°F 45.0°F 74% 30.16 in 10.0 miles SW 3.5 mph - N/A   Mostly Cloudy
4:53 PM 51.1°F 46.0°F 83% 30.17 in 10.0 miles Calm Calm - N/A   Mostly Cloudy
5:53 PM 51.1°F 46.0°F 83% 30.17 in 10.0 miles ESE 5.8 mph - N/A   Mostly Cloudy
6:53 PM 51.1°F 46.0°F 83% 30.18 in 10.0 miles SE 4.6 mph - N/A   Overcast
7:53 PM 51.1°F 46.9°F 86% 30.19 in 10.0 miles SSE 3.5 mph - 0.03 in Rain Light Rain
8:53 PM 50.0°F 46.9°F 89% 30.20 in 10.0 miles SE 6.9 mph - 0.02 in   Overcast
9:10 PM 50.0°F 46.4°F 87% 30.20 in 10.0 miles SSE 8.1 mph - N/A   Overcast
9:53 PM 50.0°F 46.9°F 89% 30.20 in 10.0 miles SE 8.1 mph - N/A   Overcast
10:20 PM 50.0°F 46.4°F 87% 30.21 in 10.0 miles ESE 5.8 mph - N/A   Overcast
10:30 PM 48.2°F 46.4°F 93% 30.21 in 10.0 miles SE 4.6 mph - N/A   Overcast
10:39 PM 48.2°F 46.4°F 93% 30.21 in 10.0 miles SE 5.8 mph - N/A   Overcast
10:53 PM 50.0°F 46.9°F 89% 30.22 in 10.0 miles SE 8.1 mph - N/A   Mostly Cloudy
11:53 PM 48.0°F 46.0°F 93% 30.22 in 10.0 miles SE 6.9 mph - N/A   Partly Cloudy
Moon Phase
Nov. 12 Nov. 13 Nov. 20 Nov. 28 Dec. 06
Sunrise:07:10 AM (PST) Moon Rise:05:39 AM (PST)11/12
Sunset:04:35 PM (PST) Moon Set:03:46 PM (PST)11/12

Copyright © 2014 The Weather Underground, Inc.